Location: *
(45.4000°S, 169.2833°W)
Time: 04:09:26
(UTC+00:00)

Daily predictions for brighter satellites

Satellite Brightness Start Highest point End
(mag) Time Altitude Azimuth Time Altitude Azimuth Time Altitude Azimuth
Cosmos 468 Rocket 4.1 06:22:10 10° SSW 06:27:35 89° WNW 06:32:55 10° NNE
SL-23 DEB 3.8 06:28:10 10° WSW 06:32:59 82° NW 06:36:19 10° ENE
Okean O Rocket 3.8 06:30:19 10° S 06:34:24 33° WSW 06:38:26 10° NW
YAOGAN 1 2.8 06:33:49 10° SSE 06:38:07 48° E 06:42:20 10° N
Cosmos 1763 Rocket 3.7 06:34:02 10° SSW 06:39:26 80° WNW 06:44:46 10° NNE
Cosmos 2322 3.8 06:34:47 10° SSW 06:40:34 78° ESE 06:46:16 10° NNE
ARGOS 4.1 06:36:02 10° SE 06:40:38 27° E 06:45:11 10° NNE
Cosmos 2058 3.3 06:37:35 10° NNE 06:41:35 44° E 06:45:40 10° SSE
SL-08 ROCKET BODY 4.5 06:35:42 10° N 06:41:50 67° E 06:47:58 10° SSE
Cosmos 2297 Rocket 3.8 06:39:54 10° NE 06:42:35 14° E 06:45:16 10° ESE
Molniya-1 3.4 06:40:20 10° SW 06:42:48 88° SSE 06:49:09 10° NE
In-Cosmos 22 Rocket 4.3 06:39:18 10° N 06:45:01 72° E 06:50:55 10° SSE
HJ-1C 4.0 06:44:51 10° SSE 06:48:00 35° E 06:51:07 10° NNE
OE (NEXTSAT) 4.3 06:46:39 10° WNW 06:50:11 88° NNE 06:53:43 10° E
Cosmos 1892 2.7 06:47:17 10° N 06:51:11 80° E 06:55:06 10° S
Cosmos 405 3.3 06:47:59 10° S 06:51:29 49° ESE 06:54:57 10° NNE
X-37B 2.5 06:52:39 10° N 06:54:19 13° NE 06:54:43 13° NE
H-2A R/B 2.3 06:50:56 10° SSE 06:55:53 48° E 07:00:53 10° N
Cosmos 1375 Rocket 4.5 06:50:33 10° NNW 06:56:50 82° ENE 07:03:13 10° SE
Cosmos 2221 2.5 06:53:22 10° S 06:57:46 88° E 07:02:08 10° N
CSL-04 Rocket 4.0 06:52:35 10° SSE 06:57:56 47° E 07:03:17 10° N
Ariane Rocket 4.4 06:55:13 10° SE 06:58:46 19° E 07:01:13 14° NE
Cosmos 1408 2.6 06:56:14 10° N 06:59:57 67° E 07:03:44 10° SSE
Cosmos 1842 Rocket 3.8 06:55:38 10° SSW 07:00:13 79° W 07:04:44 10° N
Cosmos 1570 Rocket 4.1 06:55:32 10° SSW 07:00:55 78° ESE 07:06:17 10° NNE
Cosmos 540 Rocket 3.5 06:56:43 10° SSW 07:01:59 85° ESE 07:07:11 10° NNE
Nadezhda 1 Rocket 4.0 06:56:15 10° S 07:02:30 86° E 07:08:36 10° N
Lacrosse 5 rocket 4.0 07:00:06 10° SW 07:03:12 18° S 07:06:13 10° SE
Cosmos 841 Rocket 3.5 06:59:45 10° SSW 07:05:03 89° ESE 07:10:20 10° NNE
COSMOS 2428 2.7 06:59:38 10° SSW 07:05:25 78° ESE 07:10:43 12° NNE
Cosmos 1346 Rocket 2.8 07:02:35 10° N 07:06:35 65° E 07:10:38 10° SSE
Cosmos 2333 Rocket 2.3 07:01:01 10° SSW 07:06:51 82° WNW 07:12:39 10° NNE
SL-08 RB Rocket 4.4 07:02:51 10° SSE 07:07:02 32° E 07:10:52 11° NNE
Okean-O 3.0 07:02:41 10° S 07:07:12 71° WSW 07:11:39 10° NNW
Cosmos 2208 Rocket 4.0 07:02:27 10° SSW 07:07:51 74° ESE 07:12:36 13° NNE
Cosmos 2084 Rocket 3.4 07:03:44 10° SW 07:08:05 84° NW 07:11:24 16° NE
Helios 1A Rocket 3.7 07:04:52 10° S 07:09:02 58° WSW 07:13:08 10° NNW
ATLAS CENTAUR R/B 4.2 07:06:57 10° W 07:10:46 24° SW 07:14:42 10° SSE
Cosmos 2219 4.2 07:07:08 10° NNE 07:11:46 26° ENE 07:16:24 10° SE
Cosmos 1825 2.2 07:09:51 10° N 07:13:36 61° E 07:17:25 10° SSE
Cosmos 2237 Rocket 2.9 07:10:46 10° SSW 07:16:11 40° SE 07:19:54 18° ENE
USA 229 DEB 3.9 07:08:55 10° NNW 07:16:35 74° NE 07:23:56 10° SE
USA 229 3.9 07:09:01 10° NNW 07:16:42 73° ENE 07:24:01 10° SE
Cosmos 1076 Rocket 3.5 07:13:26 10° N 07:17:48 81° E 07:22:15 10° S
SJ-6B 3.9 07:15:28 10° SE 07:18:37 24° E 07:19:30 22° ENE
USA 267 3.3 07:16:05 10° SE 07:22:45 90° N 07:29:22 10° NW
ISS -2.2 07:20:03 10° SW 07:23:11 31° S 07:25:45 13° ESE
Cosmos 2360 Rocket 4.1 07:18:59 10° SW 07:23:40 26° WNW 07:28:19 10° NNW
USA 281 3.8 07:17:40 10° SSE 07:24:12 62° WSW 07:30:41 10° NW
Cosmos 1745 Rocket 4.4 07:18:31 10° NNW 07:24:53 70° W 07:31:18 10° S
Cosmos 1980 4.1 07:21:32 10° SSW 07:27:06 50° ESE 07:30:34 22° NE
CZ-4 R/B 2.9 07:23:07 10° S 07:27:09 41° WSW 07:31:03 10° NW
Cosmos 1633 4.3 07:27:47 17° E 07:27:47 17° E 07:29:51 10° SE
H-2A R/B 3.4 07:25:47 16° NNE 07:29:06 88° WNW 07:33:20 10° SSW
NOSS 3-1 (A) 4.1 07:22:46 10° NNW 07:31:33 75° NE 07:39:18 10° SE
Okean 3 Rocket 4.4 07:30:30 25° NE 07:32:15 33° E 07:36:23 10° SSE
Cosmos 1766 Rocket 4.3 07:36:03 27° NE 07:37:27 34° E 07:41:30 10° SSE
CSL-04 Debris 4.3 07:32:41 10° SSE 07:38:10 78° WSW 07:43:35 10° NNW
SL-16 R/B 3.6 07:37:19 10° S 07:42:07 26° SE 07:44:56 18° E
MetOp-A 4.4 07:40:30 10° SSE 07:45:44 46° E 07:48:32 25° NNE
Cosmos 2227 Rocket 2.7 07:43:13 23° NNE 07:46:03 37° ENE 07:51:16 10° SE
NOSS 3-1 (C) 4.5 07:41:22 10° NW 07:50:04 68° SW 07:57:39 10° SE
USA 186 1.7 07:46:50 10° S 07:50:12 88° W 07:51:42 30° NNW
TELKOM 3 4.4 07:47:01 10° WSW 07:50:42 50° SSE 07:51:41 35° ESE
Cosmos 2219 Rocket 3.2 07:45:23 10° SW 07:50:44 42° WNW 07:55:27 13° N
Cosmos 1441 Rocket 4.1 07:51:25 31° E 07:51:25 31° E 07:54:32 10° SSE
Cosmos 1606 2.6 07:47:36 10° S 07:51:29 82° E 07:52:50 39° NNE
Cosmos 1151 Rocket 3.5 07:48:28 10° S 07:52:43 44° ESE 07:53:48 37° ENE
Cosmos 1709 Rocket 4.2 07:48:25 10° NNW 07:54:44 73° W 08:01:03 10° S
MOS 1-B Rocket 4.4 07:49:59 22° NNE 07:55:20 76° ESE 08:01:58 10° SSW
FREGAT/IRIS 3.3 07:54:22 10° SSE 07:56:10 37° SSE 07:56:10 37° SSE
USA 234 3.2 07:53:29 27° NE 07:57:23 88° NW 08:04:03 10° SW
SPOT 3 Rocket 4.4 07:55:26 10° SE 08:00:01 30° E 08:00:20 30° ENE
NOSS 0 Rocket 4.2 07:58:15 10° SSW 08:04:27 67° WNW 08:07:59 26° N
Meteor 1-4 Rocket 4.3 08:03:22 10° SSE 08:05:40 21° ESE 08:05:40 21° ESE
Cosmos 1328 Rocket 3.8 08:02:31 10° S 08:06:59 56° ESE 08:07:54 47° ENE
Cosmos 2151 3.4 08:04:24 15° NNW 08:07:48 62° W 08:12:07 10° S
Cosmos 2074 Rocket 4.1 08:04:50 29° NNE 08:07:58 59° E 08:14:12 10° SSE
Cosmos 389 Rocket 2.4 08:04:18 10° S 08:07:59 87° E 08:08:27 66° NNE
Cosmos 1933 3.3 08:04:03 10° S 08:08:14 76° E 08:09:05 54° NNE
Resurs 01 Rocket 2.7 08:04:41 10° SE 08:08:03 28° E 08:08:03 28° E
OBJECT-B 1.0 08:08:08 10° SSE 08:11:03 59° SE 08:11:03 59° SE
Meteor 2-17 Rocket 4.4 08:11:27 23° N 08:15:32 83° E 08:21:47 10° S
Cosmos 1408 Rocket 3.8 08:15:31 48° E 08:15:36 48° E 08:19:53 10° SSE
Cosmos 2181 Rocket 4.2 08:10:32 10° SSW 08:16:43 69° W 08:20:43 23° N
Cosmos 836 Rocket 4.4 08:15:05 10° SSW 08:20:23 87° WNW 08:22:00 46° NNE
ARGOS 4.2 08:15:53 10° S 08:21:03 45° WSW 08:26:11 10° NW
SL-8 R/B 4.5 08:20:10 10° NW 08:23:16 35° NNW 08:23:16 35° NNW
Cosmos 2297 Rocket 2.1 08:20:06 10° NNW 08:25:45 89° ENE 08:31:30 10° SSE
Timation 2 Rocket 4.3 08:19:16 10° NNW 08:26:07 74° WSW 08:32:49 10° SSE
Cosmos 1782 3.0 08:23:09 10° S 08:27:04 56° ESE 08:27:04 56° ESE
Cosmos 968 Rocket 3.8 08:26:44 11° NNW 08:31:40 66° WSW 08:36:51 10° SSE
H-2A R/B 4.2 08:30:58 10° S 08:35:01 24° WSW 08:39:08 10° WNW
Ariane Rocket 3.5 08:33:03 10° S 08:38:08 61° WSW 08:41:24 22° NW
Cosmos 1515 Rocket 3.5 08:36:47 10° S 08:41:20 76° E 08:41:22 76° E
Lacrosse 5 rocket 3.2 08:40:01 10° SW 08:43:39 25° SSE 08:45:00 21° SE
Meteor 2-6 Rocket 4.4 08:42:07 10° S 08:47:51 59° ESE 08:48:39 54° ENE
Cosmos 2154 Rocket 3.9 08:46:27 49° NNE 08:48:17 76° E 08:54:44 10° SSE
Meteor 2-3 Rocket 4.1 08:46:37 26° NNW 08:49:56 63° WSW 08:55:46 10° S
Cosmos 773 Rocket 4.1 08:46:15 10° SSW 08:51:25 58° ESE 08:51:44 57° E
Nadezhda 3 Rocket 3.9 08:46:00 10° S 08:52:16 81° E 08:53:37 57° NNE
Resurs 1-3 4.0 08:50:27 10° S 08:54:52 61° WSW 08:55:35 53° WNW
Cosmos 2219 3.9 08:50:00 10° NW 08:55:35 52° WSW 09:01:11 10° SSE
Cosmos 2237 Rocket 3.3 08:55:01 10° SW 09:00:10 35° WNW 09:01:45 30° NW
Cosmos 1503 Rocket 4.4 08:57:42 32° NW 09:00:12 64° WSW 09:05:38 10° SSE
MetOp-B 4.2 08:54:49 10° SSE 08:59:58 58° E 08:59:58 58° E
ISS -1.9 08:56:49 10° WSW 08:58:41 30° WSW 08:58:41 30° WSW
SeaSat 1 2.5 08:55:44 10° SSE 09:00:08 62° ESE 09:00:08 62° ESE
Cosmos 1633 4.1 09:01:51 32° W 09:01:57 32° WSW 09:05:18 10° S
USA 81 4.0 09:04:04 71° E 09:04:04 71° E 09:09:25 10° S
Cosmos 2228 Rocket 3.5 08:59:35 10° S 09:03:22 56° SSE 09:03:22 56° SSE
Cosmos 2082 3.6 09:03:44 67° NNW 09:04:31 85° ENE 09:10:16 10° SSE
USA 267 4.4 08:59:13 10° SE 09:05:22 42° SSW 09:11:29 10° W
Meteor 1-10 Rocket 4.2 09:02:43 10° S 09:08:38 70° ESE 09:09:05 67° ENE
IGS 5A 4.4 09:05:01 10° SSE 09:07:56 42° SSE 09:07:56 42° SSE
Landsat 7 4.2 09:04:44 10° SSE 09:08:42 53° SE 09:08:42 53° SE
Cosmos 1867 3.4 09:06:27 10° SW 09:11:53 83° WNW 09:11:58 82° NW
Cosmos 1500 Rocket 4.0 09:13:48 62° S 09:13:48 62° S 09:17:36 10° S
Cosmos 1943 4.3 09:10:10 10° S 09:15:15 32° SE 09:16:02 31° ESE
Cosmos 1743 Rocket 4.2 09:25:01 57° SW 09:25:01 57° SW 09:29:01 10° S
CENTAUR R/B 3.7 09:20:23 10° SSW 09:25:35 28° SSE 09:27:34 23° ESE
ERS-1 Rocket 4.1 09:21:46 10° SSE 09:25:08 34° ESE 09:25:08 34° ESE
SL-16 R/B 2.4 09:20:59 10° SSW 09:26:38 59° WNW 09:26:49 59° WNW
Timation 1 Rocket 4.3 09:29:35 71° E 09:29:35 71° E 09:35:15 10° SSE
Cosmos 2227 Rocket 3.5 09:24:52 10° WNW 09:30:04 38° SW 09:35:26 10° SSE
Thor Agena Rocket 3.6 09:30:50 76° SW 09:30:50 76° SW 09:35:38 10° SSW
Cosmos 1812 4.2 09:27:44 10° SSW 09:30:12 36° SSW 09:30:12 36° SSW
Cosmos 2263 Rocket 3.3 09:38:43 33° ESE 09:38:43 33° ESE 09:42:12 10° SE
Meteor 1-27 Rocket 3.8 09:31:30 10° S 09:37:29 75° ESE 09:37:29 75° ESE
USA 234 4.4 09:40:50 27° NW 09:40:56 27° NW 09:46:23 10° WSW
Cosmos 1727 Rocket 4.4 09:38:35 10° S 09:44:52 52° ESE 09:44:56 52° E
Resurs 01 Rocket 3.2 09:41:08 10° S 09:45:07 31° WSW 09:45:38 30° W
Cosmos 1538 Rocket 4.3 09:41:29 10° SSW 09:45:59 65° SW 09:45:59 65° SW
ARIANE 5 R/B 3.7 09:47:15 10° S 09:50:43 43° SW 09:50:43 43° SW
Cosmos 1680 Rocket 4.4 09:48:04 10° S 09:52:39 41° SE 09:52:39 41° SE
Cosmos 2341 Rocket 4.3 09:58:35 56° WNW 09:59:22 60° WSW 10:05:45 10° S
USA 238 DEB 3.8 09:53:54 10° SW 10:00:52 63° SE 10:01:44 58° E
USA 238 3.8 09:54:01 10° SW 10:00:59 63° SE 10:01:52 58° E
Gbstr 26 Del rocket 4.1 10:03:22 76° ENE 10:03:22 76° ENE 10:09:35 10° ESE
Terra 3.0 09:58:54 10° SSE 10:01:59 38° SE 10:01:59 38° SE
NOSS 3-2 (A) 3.4 09:59:17 10° SW 10:05:48 71° SE 10:05:48 71° SE
Spot 2 Rocket 4.1 10:01:00 10° S 10:05:39 52° SW 10:05:39 52° SW
Lacrosse 4 Rocket 4.3 10:04:54 10° SSE 10:06:27 12° SE 10:07:50 10° SE
Cosmos 2218 Rocket 3.9 10:08:52 78° WSW 10:08:52 78° WSW 10:15:05 10° S
GEOS 3 Rocket 4.3 10:07:27 10° SE 10:11:03 47° SE 10:11:03 47° SE
Cosmos 1603 4.0 10:11:26 10° SSW 10:16:28 67° SW 10:16:28 67° SW
SPOT 5 3.5 10:14:52 10° S 10:19:23 61° SSW 10:19:23 61° SSW
SL-8 Rocket 4.4 10:21:57 52° W 10:22:25 53° WSW 10:28:39 10° S
Cosmos 2227 4.5 10:23:24 66° S 10:23:24 66° S 10:28:24 10° SSE
Lacrosse 5 rocket 3.6 10:19:04 10° SW 10:20:37 21° SW 10:20:37 21° SW
Cosmos 1821 Rocket 4.2 10:28:52 60° ESE 10:28:52 60° ESE 10:34:36 10° SSE
SJ 16-02 3.0 10:32:47 33° S 10:32:47 33° S 10:35:19 10° SSE
Resurs 1-4 Rocket 4.0 10:33:49 20° ESE 10:34:29 20° ESE 10:38:17 10° SSE
Cosmos 1898 Rocket 4.4 10:44:08 45° SE 10:44:08 45° SE 10:47:47 10° SSE
Helios 1B rocket 4.4 10:49:47 26° SSE 10:49:47 26° SSE 10:51:56 10° S
Meteor 2-4 Rocket 4.4 10:43:56 10° S 10:48:30 47° SE 10:48:30 47° SE
CZ-2D R/B 3.7 10:50:36 27° ESE 10:51:05 27° ESE 10:55:42 10° S
Cosmos 2344 4.4 10:40:15 10° SW 10:54:40 77° WNW 10:57:38 56° N
Cosmos 1943 4.3 10:54:04 10° SW 10:57:50 36° WSW 10:57:50 36° WSW
NOSS 3-2 (C) 3.8 11:00:15 10° SW 11:05:30 57° SW 11:05:30 57° SW
NOSS 3-4 (A) 4.0 11:07:30 69° NE 11:07:36 69° ENE 11:15:26 10° SE
NOSS 3-4 (C) 4.0 11:07:36 69° NE 11:07:42 69° ENE 11:15:31 10° SE
Cosmos 1844 Rocket 3.6 11:11:39 41° ESE 11:11:39 41° ESE 11:15:39 10° SE
Cosmos 1605 Rocket 4.5 11:11:26 49° ESE 11:11:26 49° ESE 11:16:52 10° SSE
CENTAUR R/B 3.1 11:10:57 10° SW 11:14:43 40° SW 11:14:43 40° SW
Cosmos 1934 Rocket 4.0 11:18:14 79° SSE 11:18:14 79° SSE 11:24:15 10° S
CZ-4C R/B 3.8 11:19:41 35° ENE 11:19:41 35° ENE 11:25:34 10° SE
Cosmos 2263 Rocket 3.4 11:20:22 32° WSW 11:20:54 33° SW 11:26:01 10° S
ATLAS 2AS CENTAUR R/B 2.7 11:28:23 60° ESE 11:28:23 60° ESE 11:33:40 10° SE
Cosmos 2123 Rocket 4.1 11:24:55 10° SSW 11:30:43 70° SW 11:30:43 70° SW
Meteor 1-5 Rocket 4.5 11:35:38 71° S 11:35:38 71° S 11:40:50 10° S
Terra 4.0 11:37:44 10° SSW 11:40:53 18° WSW 11:40:53 18° WSW
Lacrosse 4 Rocket 3.2 11:41:43 10° SSW 11:44:07 30° SSW 11:44:07 30° SSW
Cosmos 1833 Rocket 4.4 11:46:41 10° S 11:51:37 29° SE 11:55:02 17° E
COSMOS 2455 4.1 11:54:29 29° E 11:54:29 29° E 11:59:06 10° SE
